Location: Unspecified
(43.4680°N, 87.1740°E)
Time: 17:51:54
(UTC+00:00)

ISS - Pass Details

Date: 29 September 2021
Orbit: 417 x 423 km, 51.6° (Epoch: 28 October)

Event Time Altitude Azimuth Distance (km) Brightness Sun altitude
Rises 13:35:20 0° 304° (WNW) 2,367 1.4 -18.7°
Reaches altitude 10° 13:37:35 10° 314° (NW) 1,502 -0.1 -19.1°
Maximum altitude 13:40:39 32° 20° (NNE) 754 -2.6 -19.6°
Enters shadow 13:40:41 32° 21° (NNE) 754 -2.6 -19.6°
